{"data":{"norad_id":57241,"epoch":"2026-05-24T18:24:26.737632Z","epoch_age_seconds":102086,"freshness":"FRESH","line1":"1 57241U 23094Z   26144.76697613  .00000434  00000+0  25295-4 0  9996","line2":"2 57241  43.0000 310.3703 0001471 248.9039 111.1655 15.27577948158877","mean_motion":15.27577948,"eccentricity":0.0001471,"inclination_deg":43,"raan_deg":310.3703,"arg_perigee_deg":248.9039,"mean_anomaly_deg":111.1655,"bstar":2.5295e-5,"rev_number":15887,"period_min":94.266875342456,"perigee_km":482.04595909416,"apogee_km":484.06452185131,"semimajor_km":6861.1922404727,"source":"CELESTRAK","updated_at":"2026-05-25T13:38:18.256796Z"}}